This is the latest recevied weather packets stored in our database for station/object SV7RNH. If no packets are shown the sender has not sent any weather packets the latest 10 day(s).
| Time | Temp. | Humidity | Pressure | Rain* | Wind** | Luminosity | Snow |
|---|---|---|---|---|---|---|---|
| 1777826403 | 18.89° C | 10% | 1018.4 hPa | 0 mm | - | - | - |
| 1777826103 | 18.89° C | 10% | 1018.4 hPa | 0 mm | - | - | - |
| 1777825804 | 19.44° C | 10% | 1018.4 hPa | 0 mm | - | - | - |
| 1777825504 | 18.89° C | 10% | 1018.4 hPa | 0 mm | - | - | - |
| 1777825204 | 18.89° C | 10% | 1018.4 hPa | 0 mm | - | - | - |
| 1777824903 | 18.89° C | 10% | 1018.3 hPa | 0 mm | - | - | - |
| 1777824603 | 18.89° C | 10% | 1018.4 hPa | 0 mm | - | - | - |
| 1777824304 | 18.89° C | 10% | 1018.5 hPa | 0 mm | - | - | - |
| 1777824004 | 18.89° C | 10% | 1018.3 hPa | 0 mm | - | - | - |
| 1777823703 | 19.44° C | 10% | 1018.3 hPa | 0 mm | - | - | - |
| 1777823403 | 19.44° C | 10% | 1018.3 hPa | 0 mm | - | - | - |
| 1777823103 | 20° C | 10% | 1018.2 hPa | 0 mm | - | - | - |
| 1777822804 | 20° C | 10% | 1018.3 hPa | 0 mm | - | - | - |
| 1777822505 | 20.56° C | 10% | 1018.4 hPa | 0 mm | - | - | - |
| 1777822204 | 21.11° C | 10% | 1018.4 hPa | 0 mm | - | - | - |
| 1777821903 | 21.11° C | 10% | 1018.3 hPa | 0 mm | - | - | - |
| 1777821604 | 21.67° C | 10% | 1018.5 hPa | 0 mm | - | - | - |
| 1777821303 | 21.11° C | 10% | 1018.4 hPa | 0 mm | - | - | - |
| 1777821003 | 20.56° C | 10% | 1018.5 hPa | 0 mm | - | - | - |
| 1777820703 | 21.11° C | 10% | 1018.6 hPa | 0 mm | - | - | - |
| 1777820404 | 21.11° C | 10% | 1018.5 hPa | 0 mm | - | - | - |
| 1777820104 | 20.56° C | 10% | 1018.5 hPa | 0 mm | - | - | - |
| 1777819803 | 21.11° C | 10% | 1018.6 hPa | 0 mm | - | - | - |
| 1777819503 | 21.11° C | 10% | 1018.7 hPa | 0 mm | - | - | - |
| 1777819204 | 21.11° C | 10% | 1018.7 hPa | 0 mm | - | - | - |
* Rain latest hour (hover to see other rain measurements)
** Current wind speed in m/s (hover to see current wind gust speed)